Find OneWeb SL0683

NORAD ID: 56719 Int'l Des: 2023-068 Owner: ONEWEBN Country: UK Constellation: oneweb operational
LEOCIRCULARPOLARONEWEB_TYPE

リアルタイム位置

3D地球を読み込み中...

OneWeb SL0683について

説明を読み込み中...

次回通過

Passes for default location (London). Set your location on the main map for personalized predictions.

高度履歴

Loading altitude history...

軌道要素

1 56719U 23068K 26110.40396198 -.00000049 00000-0 -16350-3 0 9990
2 56719 87.8953 270.7152 0001526 97.8833 262.2471 13.15547244141822
Epoch: Apr 20, 2026 • Age: 7 hours

現在のステータス

高度 1228.0 km
速度 7.24 km/s
衛星直下点 -66.20°S, 0.37°E
打ち上げ日 May 20, 2023
運用期間 2.9 years
タイプ internet

技術仕様

分類 Payload
質量 148.00 kg
乾燥質量 140.00 kg
総質量 148.00 kg
長さ 1.30 m
直径 1.00 m
スパン 5.00 m
形状 Trapezoid+2 pan
製造者 ONEWUS
バスタイプ ARROW
フェーズステータス In Orbit
所有者/国 ONEWEBN/UK

Most Searched